[[{"header":{"parameterUnit":"m.s-1","parameterCategory":1,"la1":30.2991,"la2":30.254,"lo1":-89.0895,"lo2":-89.0444,"dy":0.0017,"dx":0.0017,"nx":28,"ny":28,"refTime":"2023-08-12T03:00:00:Z","depth":0,"parameterNumber":2,"parameterNumberName":"U-component_of_WINDS"},"data":[0,0,0,0,0,0,0,0,0,0,0,0,0,0,0,0,0,0,0,0,0,0,0,0,0,0,0,0,0,0,0,0,0,0,0,0,0,0,0,0,0,0,0,0,0,0,0,0,0,0,0,0,0,0,0,0,0,0,1.8942,1.8942,0,1.9028,1.9029,1.903,1.9037,1.9036,1.9035,1.9034,1.9129,1.9133,1.9136,0,0,0,0,0,0,0,0,0,0,0,0,0,1.8788,1.879,1.8941,1.8942,1.8944,1.9028,1.9029,1.9031,1.9037,1.9036,1.9035,1.9034,1.9128,1.9132,1.9137,0,0,0,0,0,0,0,0,0,0,0,0,0,1.8863,1.8791,1.8941,1.8957,1.8959,1.9028,1.903,1.9031,1.9037,1.9036,1.9034,1.9033,1.9127,1.9132,1.9137,1.9198,0,0,1.9153,1.9155,0,0,0,0,0,0,0,0,1.8858,1.8868,1.8953,1.8956,1.8959,1.902,1.901,1.9087,1.9038,1.9008,1.9034,1.9032,1.9095,1.9102,1.9122,1.9203,1.9207,1.9153,1.9156,1.9159,1.916,0,0,0,0,0,0,0,1.8853,1.8865,1.8976,1.8955,1.8958,1.8962,1.8971,1.9025,1.9059,1.901,1.9011,1.9021,1.9096,1.9117,1.9124,1.9208,1.9153,1.9158,1.9161,1.9163,1.9346,1.9348,0,0,0,0,0,0,1.8844,1.886,1.8973,1.8979,1.8904,1.8966,1.8976,1.9002,1.9058,1.9065,1.9022,1.9021,1.9109,1.9118,1.9128,1.9205,1.9159,1.9163,1.9166,1.9344,1.9346,1.9348,0,0,0,0,0,0,1.8841,1.8854,1.897,1.892,1.8935,1.897,1.8999,1.9005,1.9026,1.9067,1.9073,1.9037,1.9108,1.9121,1.9181,1.9208,1.9166,1.9171,1.9342,1.9345,1.9347,1.9358,0,0,0,0,0,0,1.8836,1.8853,1.8875,1.892,1.8937,1.9019,1.9001,1.9007,1.9034,1.9033,1.9083,1.909,1.9108,1.9173,1.9186,1.9214,1.9175,1.934,1.9343,1.9346,1.9355,1.9361,1.9365,0,0,0,0,0,1.8831,1.8875,1.8876,1.8889,1.8965,1.9021,1.9031,1.9049,1.9036,1.906,1.9086,1.9088,1.9203,1.9179,1.9194,1.9224,1.9338,1.9342,1.9346,1.9353,1.936,1.9365,0,0,0,0,0,0,1.8834,1.8881,1.8883,1.8942,1.8977,1.9022,1.9052,1.9055,1.9096,1.9094,1.9117,1.9128,1.9188,1.9212,1.9185,1.9288,1.9269,1.9276,1.927,1.9276,1.9281,1.9275,1.9179,0,0,0,0,0,1.8841,1.8881,1.8921,1.897,1.8987,1.9016,1.9041,1.9052,1.909,1.9106,1.9137,1.9175,1.922,1.9249,1.9293,1.9359,1.9371,1.9387,1.9392,1.9396,1.9402,1.9441,1.9449,1.9361,1.9361,1.9361,0,0,1.8858,1.8888,1.8912,1.8971,1.9,1.9042,1.9029,1.9074,1.9106,1.9113,1.9172,1.9196,1.9241,1.9304,1.9334,1.9326,1.9429,1.9401,1.9403,1.9408,1.9446,1.9454,1.9462,1.9364,1.9363,1.9363,0,0,1.891,1.8936,1.898,1.9009,1.9051,1.907,1.9081,1.9125,1.9141,1.92,1.9206,1.9246,1.9322,1.9355,1.9381,1.9446,1.945,1.9459,1.9486,1.9523,1.953,1.9536,1.9561,1.957,1.9465,1.9465,1.9465,0,1.8925,1.8987,1.9003,1.9048,1.9075,1.9082,1.9129,1.9156,1.9211,1.9231,1.9221,1.9317,1.9348,1.942,1.9436,1.9456,1.9471,1.9454,1.9527,1.9534,1.954,1.9564,1.9573,1.9466,1.9466,1.9466,1.9466,0,1.9005,1.9048,1.908,1.9131,1.9162,1.9207,1.9233,1.9262,1.9271,1.9292,1.9353,1.939,1.9441,1.9459,1.9469,1.9534,1.9528,1.9522,1.9505,1.9549,1.9572,1.9582,1.9468,1.9467,1.9467,1.9467,0,0,1.9062,1.9122,1.9133,1.9158,1.9205,1.924,1.9287,1.9336,1.9361,1.94,1.9441,1.9506,1.9501,1.9531,1.9545,1.9577,1.9629,1.9568,1.957,1.958,1.9705,1.971,1.972,1.9631,1.9633,1.9634,1.9702,0,1.9121,1.9202,1.9219,1.9291,1.9332,1.9339,1.9381,1.9416,1.9437,1.9477,1.9501,1.9547,1.9537,1.9555,1.9587,1.9615,1.9655,1.9611,1.9673,1.9675,1.9663,1.9732,1.9737,1.9799,1.9711,1.9712,1.9714,0,1.92,1.9238,1.9314,1.9357,1.9375,1.9412,1.9459,1.9496,1.9537,1.955,1.9583,1.9593,1.9645,1.9624,1.9697,1.9667,1.9694,1.9711,1.9714,1.9722,1.9698,1.9744,1.9819,1.9829,1.9728,1.9727,1.9726,0,1.9236,1.9307,1.9362,1.9382,1.9433,1.9459,1.9482,1.9521,1.955,1.9592,1.9611,1.9659,1.9685,1.9723,1.9747,1.9729,1.9819,1.9799,1.9834,1.9833,1.9854,1.9853,1.9937,1.9868,1.9868,1.9868,1.9867,0,1.9301,1.9347,1.9379,1.9413,1.9466,1.9485,1.9538,1.9561,1.9596,1.9636,1.9646,1.9684,1.9712,1.9754,1.9773,1.9832,1.9844,1.9858,1.9863,1.9858,1.9857,1.9877,1.9874,1.987,1.987,1.9869,1.9869,0,1.9351,1.9373,1.9434,1.9477,1.9489,1.9527,1.9565,1.96,1.962,1.9672,1.9685,1.9719,1.977,1.9797,1.9861,1.9874,1.9941,1.9942,1.9926,1.9929,1.9962,1.996,2.0064,2.008,1.9999,1.9999,2.0,0,1.9391,1.9427,1.9474,1.9501,1.9524,1.9567,1.9596,1.9617,1.9647,1.9697,1.9726,1.9777,1.9819,1.99,1.9932,1.9982,1.9986,2.0019,1.9994,1.9988,1.9989,1.9987,1.9992,2.0024,2.0025,2.0025,2.0026,0,1.9462,1.9471,1.9511,1.9556,1.959,1.9627,1.9664,1.9686,1.9713,1.9747,1.9798,1.983,1.9895,1.9947,1.9999,2.0025,2.0032,2.0033,2.0044,2.0041,2.0031,2.0039,1.994,2.0031,2.0031,2.003,2.003,2.003,1.951,1.9542,1.958,1.9626,1.9655,1.9689,1.9724,1.9749,1.9791,1.9844,1.9855,1.9909,1.9951,2.0021,2.0049,2.0094,2.0088,2.0103,2.0107,2.0111,2.0114,2.0022,2.0103,2.0103,2.0103,2.0103,2.0103,0,1.9582,1.9607,1.9648,1.9698,1.9734,1.9734,1.9775,1.9806,1.9853,1.989,1.9931,1.9991,2.0041,2.0077,2.0128,2.0158,2.0162,2.0171,2.017,2.0176,2.0115,2.0102,2.0166,2.0166,2.0166,2.0166,2.0166,2.0166,1.9624,1.968,1.9694,1.9765,1.979,1.9843,1.9866,1.9898,1.9928,1.9994,2.0035,2.0057,2.0095,2.0149,2.0196,2.0205,2.0225,2.0234,2.0244,2.0187,2.018,2.0174,2.0161,2.0237,2.0237,2.0301,2.0302,2.0302]},{"header":{"parameterUnit":"m.s-1","parameterCategory":1,"la1":30.2991,"la2":30.254,"lo1":-89.0895,"lo2":-89.0444,"dy":0.0017,"dx":0.0017,"nx":28,"ny":28,"refTime":"2023-08-12T03:00:00:Z","depth":0,"parameterNumber":3,"parameterNumberName":"V-component_of_WINDS"},"data":[0,0,0,0,0,0,0,0,0,0,0,0,0,0,0,0,0,0,0,0,0,0,0,0,0,0,0,0,0,0,0,0,0,0,0,0,0,0,0,0,0,0,0,0,0,0,0,0,0,0,0,0,0,0,0,0,0,0,2.1091,2.1092,0,2.1116,2.1116,2.1116,2.1109,2.1109,2.1108,2.1108,2.1131,2.1132,2.1133,0,0,0,0,0,0,0,0,0,0,0,0,0,2.1035,2.1037,2.1091,2.1092,2.1092,2.1116,2.1116,2.1116,2.1109,2.1109,2.1108,2.1107,2.1131,2.1132,2.1133,0,0,0,0,0,0,0,0,0,0,0,0,0,2.106,2.1037,2.1091,2.1091,2.1092,2.1115,2.1116,2.1116,2.1109,2.1109,2.1108,2.1107,2.113,2.1132,2.1134,2.1158,0,0,2.1138,2.1139,0,0,0,0,0,0,0,0,2.1058,2.1062,2.1091,2.1091,2.1092,2.1109,2.1105,2.113,2.1109,2.1103,2.1108,2.1107,2.1124,2.1126,2.1132,2.116,2.1161,2.1139,2.114,2.114,2.1141,0,0,0,0,0,0,0,2.1057,2.1061,2.1101,2.1091,2.1092,2.1089,2.1092,2.111,2.1117,2.1103,2.1103,2.1106,2.1124,2.1131,2.1133,2.1161,2.1139,2.114,2.1141,2.1142,2.1206,2.1207,0,0,0,0,0,0,2.1055,2.1059,2.11,2.1102,2.1073,2.1091,2.1094,2.1104,2.1117,2.1118,2.1106,2.1105,2.1128,2.1131,2.1134,2.1161,2.114,2.1142,2.1143,2.1205,2.1206,2.1207,0,0,0,0,0,0,2.1054,2.1059,2.1099,2.108,2.1085,2.1092,2.1104,2.1105,2.1111,2.1119,2.112,2.1112,2.1128,2.1131,2.1152,2.1162,2.1143,2.1144,2.1204,2.1206,2.1207,2.1218,0,0,0,0,0,0,2.1052,2.1058,2.1069,2.1081,2.1086,2.1118,2.1105,2.1106,2.1114,2.1113,2.1125,2.1126,2.1128,2.1149,2.1153,2.1164,2.1145,2.1204,2.1205,2.1206,2.1217,2.122,2.1222,0,0,0,0,0,2.105,2.1072,2.107,2.1075,2.11,2.1118,2.1122,2.1123,2.1115,2.1125,2.113,2.1126,2.116,2.1151,2.1156,2.1167,2.1203,2.1205,2.1206,2.1216,2.1219,2.1222,0,0,0,0,0,0,2.1062,2.1073,2.1071,2.1097,2.1107,2.1117,2.113,2.1127,2.1139,2.1137,2.1138,2.1141,2.1161,2.1166,2.1156,2.119,2.118,2.1183,2.1186,2.1189,2.1192,2.1189,2.1147,0,0,0,0,0,2.1067,2.1082,2.1091,2.1113,2.1118,2.1123,2.1131,2.1132,2.1141,2.1145,2.1152,2.1161,2.1173,2.1182,2.1194,2.1218,2.1219,2.1228,2.123,2.1232,2.1234,2.1244,2.1247,2.1212,2.1212,2.1212,0,0,2.1079,2.1087,2.1096,2.1116,2.1123,2.1137,2.1127,2.1143,2.1152,2.1148,2.1167,2.1171,2.1181,2.1203,2.1212,2.1208,2.1244,2.1234,2.1236,2.1236,2.1246,2.1249,2.1252,2.1214,2.1213,2.1213,0,0,2.1106,2.1115,2.1133,2.114,2.1151,2.1154,2.1158,2.1168,2.1171,2.119,2.1186,2.1197,2.122,2.1226,2.1233,2.126,2.1255,2.1264,2.1276,2.1286,2.1289,2.1291,2.1298,2.1301,2.1266,2.1266,2.1266,0,2.1119,2.1141,2.1142,2.1158,2.1165,2.1161,2.1177,2.1184,2.1199,2.1204,2.1198,2.1224,2.1231,2.1252,2.1259,2.1265,2.1268,2.1262,2.1288,2.1291,2.1293,2.13,2.1303,2.1266,2.1266,2.1266,2.1266,0,2.1154,2.1169,2.1182,2.1195,2.1204,2.122,2.1223,2.1231,2.123,2.1233,2.1251,2.1259,2.1271,2.1276,2.1276,2.1297,2.1293,2.1288,2.1278,2.1297,2.1303,2.1306,2.1268,2.1267,2.1267,2.1267,0,0,2.119,2.1203,2.1207,2.1212,2.1223,2.1234,2.1248,2.126,2.1267,2.1276,2.1287,2.1305,2.13,2.1307,2.1307,2.1316,2.1333,2.1309,2.1309,2.1312,2.1354,2.1357,2.136,2.1331,2.1331,2.1332,2.1352,0,2.1217,2.1243,2.1244,2.1268,2.128,2.1275,2.1287,2.1294,2.1297,2.1307,2.1309,2.1321,2.1314,2.1318,2.1327,2.1329,2.1342,2.1328,2.134,2.134,2.1336,2.1364,2.1367,2.1386,2.1355,2.1356,2.1356,0,2.1252,2.1262,2.1286,2.1293,2.1298,2.1309,2.1319,2.1329,2.1336,2.1337,2.1344,2.1341,2.1355,2.1345,2.1362,2.1352,2.1357,2.1359,2.136,2.136,2.1348,2.1363,2.1393,2.1395,2.1361,2.136,2.136,0,2.1273,2.1292,2.1309,2.1313,2.1322,2.1329,2.1333,2.134,2.1346,2.1354,2.1358,2.1367,2.1372,2.1379,2.1379,2.1372,2.1396,2.1386,2.1395,2.1395,2.14,2.14,2.1429,2.1406,2.1405,2.1405,2.1405,0,2.1302,2.1316,2.1318,2.1328,2.1343,2.1343,2.1358,2.1361,2.1366,2.1376,2.1372,2.1381,2.1381,2.139,2.139,2.1402,2.1405,2.1405,2.1405,2.1405,2.1405,2.1407,2.1405,2.1406,2.1406,2.1406,2.1406,0,2.1327,2.1329,2.1346,2.1352,2.1354,2.1365,2.137,2.1378,2.138,2.1391,2.1394,2.1397,2.1406,2.1407,2.1418,2.1418,2.1433,2.1432,2.1431,2.143,2.1438,2.1437,2.147,2.1473,2.1449,2.1449,2.1449,0,2.1345,2.1356,2.1362,2.1368,2.1372,2.1382,2.1388,2.1388,2.1394,2.1401,2.1409,2.1418,2.1425,2.144,2.1442,2.145,2.1449,2.1459,2.145,2.1448,2.1446,2.1445,2.1445,2.1461,2.1461,2.1462,2.1462,0,2.1375,2.1375,2.1384,2.1392,2.1399,2.1405,2.1412,2.1417,2.1417,2.1423,2.1433,2.1438,2.1449,2.1458,2.1465,2.1468,2.1464,2.1465,2.1467,2.1466,2.1464,2.1464,2.1434,2.1464,2.1464,2.1463,2.1463,2.1463,2.1396,2.1404,2.1409,2.1418,2.1423,2.1428,2.1436,2.1438,2.1446,2.1454,2.1453,2.1463,2.1468,2.1478,2.1481,2.1488,2.1484,2.1488,2.1489,2.1489,2.1489,2.1464,2.149,2.1489,2.1489,2.1489,2.1489,0,2.1424,2.1426,2.1435,2.1443,2.1449,2.1445,2.1451,2.1457,2.1466,2.1471,2.1477,2.1487,2.1495,2.1497,2.1504,2.1509,2.1507,2.1511,2.151,2.151,2.1493,2.149,2.1512,2.1512,2.1512,2.1512,2.1512,2.1512,2.1439,2.1452,2.1452,2.1466,2.1469,2.1478,2.1482,2.1486,2.149,2.15,2.1507,2.1508,2.1511,2.1518,2.1525,2.1525,2.1527,2.1531,2.153,2.1514,2.1512,2.1509,2.1506,2.1532,2.1532,2.1547,2.1547,2.1547]}]]